TimeHST,TemperatureF,Dew PointF,Humidity,Sea Level PressureIn,VisibilityMPH,Wind Direction,Wind SpeedMPH,Gust SpeedMPH,PrecipitationIn,Events,Conditions,WindDirDegrees,DateUTC
12:11 AM,69.8,68.0,94,29.87,10.0,East,4.6,-,N/A,,Mostly Cloudy,100,2012-10-07 10:11:00
12:17 AM,71.6,68.0,88,29.87,10.0,East,4.6,-,N/A,,Mostly Cloudy,100,2012-10-07 10:17:00
12:55 AM,70.2,67.8,92,29.87,10.0,SE,3.5,-,N/A,,Clear,130,2012-10-07 10:55:00
1:11 AM,71.6,68.0,88,29.86,10.0,SE,3.5,-,N/A,,Mostly Cloudy,130,2012-10-07 11:11:00
1:55 AM,70.0,67.6,92,29.86,10.0,NW,3.5,-,N/A,,Overcast,310,2012-10-07 11:55:00
1:59 AM,69.8,68.0,94,29.85,10.0,Calm,Calm,-,N/A,,Light Drizzle,0,2012-10-07 11:59:00
2:10 AM,69.8,68.0,94,29.85,10.0,Calm,Calm,-,N/A,,Mostly Cloudy,0,2012-10-07 12:10:00
2:16 AM,69.8,68.0,94,29.85,10.0,Calm,Calm,-,N/A,,Mostly Cloudy,0,2012-10-07 12:16:00
2:55 AM,71.1,68.0,90,29.84,10.0,Calm,Calm,-,0.00,,Overcast,0,2012-10-07 12:55:00
3:01 AM,71.6,68.0,88,29.84,10.0,SSE,3.5,-,N/A,,Overcast,160,2012-10-07 13:01:00
3:55 AM,71.6,68.2,89,29.83,10.0,Calm,Calm,-,N/A,,Overcast,0,2012-10-07 13:55:00
4:55 AM,71.1,68.0,90,29.84,10.0,South,4.6,-,N/A,,Mostly Cloudy,180,2012-10-07 14:55:00
5:55 AM,70.5,67.5,90,29.84,10.0,Calm,Calm,-,N/A,,Clear,0,2012-10-07 15:55:00
6:55 AM,68.9,66.4,92,29.85,7.0,Calm,Calm,-,N/A,,Clear,0,2012-10-07 16:55:00
7:18 AM,71.6,69.8,94,29.86,10.0,SSE,3.5,-,N/A,,Mostly Cloudy,150,2012-10-07 17:18:00
7:55 AM,74.8,69.4,83,29.87,10.0,Variable,3.5,-,N/A,,Overcast,0,2012-10-07 17:55:00
8:51 AM,78.8,68.0,69,29.88,10.0,Variable,5.8,-,N/A,,Mostly Cloudy,0,2012-10-07 18:51:00
8:53 AM,78.8,68.0,69,29.88,10.0,Variable,3.5,-,N/A,,Mostly Cloudy,0,2012-10-07 18:53:00
8:55 AM,78.4,66.9,68,29.88,10.0,ESE,3.5,-,N/A,,Mostly Cloudy,120,2012-10-07 18:55:00
9:47 AM,80.6,68.0,65,29.88,10.0,SSE,4.6,-,N/A,,Overcast,150,2012-10-07 19:47:00
9:55 AM,80.8,67.1,63,29.88,10.0,SE,4.6,-,N/A,,Mostly Cloudy,130,2012-10-07 19:55:00
10:55 AM,82.0,64.8,56,29.87,10.0,NNW,8.1,-,N/A,,Overcast,330,2012-10-07 20:55:00
11:55 AM,83.5,63.3,50,29.84,10.0,West,4.6,-,N/A,,Overcast,260,2012-10-07 21:55:00
12:55 PM,83.3,64.8,53,29.82,10.0,West,8.1,-,N/A,,Mostly Cloudy,270,2012-10-07 22:55:00
1:55 PM,86.0,66.2,51,29.80,10.0,WSW,6.9,17.3,N/A,,Scattered Clouds,240,2012-10-07 23:55:00
2:55 PM,82.4,66.6,59,29.80,10.0,WSW,12.7,-,N/A,,Mostly Cloudy,250,2012-10-08 00:55:00
3:55 PM,79.9,65.7,62,29.81,10.0,Variable,5.8,-,N/A,,Clear,0,2012-10-08 01:55:00
4:55 PM,80.6,66.6,62,29.81,10.0,SSW,6.9,-,N/A,,Scattered Clouds,210,2012-10-08 02:55:00
5:55 PM,77.9,66.4,68,29.83,10.0,SE,3.5,-,N/A,,Mostly Cloudy,140,2012-10-08 03:55:00
6:41 PM,77.0,66.2,69,29.85,10.0,South,4.6,-,N/A,,Mostly Cloudy,170,2012-10-08 04:41:00
6:48 PM,77.0,66.2,69,29.85,10.0,Variable,3.5,-,N/A,,Mostly Cloudy,0,2012-10-08 04:48:00
6:55 PM,76.5,67.1,73,29.85,10.0,SSE,3.5,-,N/A,,Mostly Cloudy,150,2012-10-08 04:55:00
7:27 PM,77.0,68.0,74,29.86,10.0,SE,3.5,-,N/A,,Light Drizzle,130,2012-10-08 05:27:00
7:34 PM,75.2,68.0,78,29.86,10.0,SSE,3.5,-,N/A,,Partly Cloudy,150,2012-10-08 05:34:00
7:55 PM,75.2,68.0,78,29.86,10.0,Variable,4.6,-,0.00,,Partly Cloudy,0,2012-10-08 05:55:00
8:55 PM,74.1,67.6,80,29.88,10.0,SE,3.5,-,N/A,,Partly Cloudy,140,2012-10-08 06:55:00
9:55 PM,72.9,66.9,82,29.88,10.0,Calm,Calm,-,N/A,,Clear,0,2012-10-08 07:55:00
10:24 PM,73.4,68.0,83,29.88,10.0,South,8.1,-,N/A,Rain,Light Rain,190,2012-10-08 08:24:00
10:36 PM,73.4,69.8,88,29.88,9.0,Variable,4.6,-,N/A,,Mostly Cloudy,0,2012-10-08 08:36:00
10:55 PM,73.6,70.2,89,29.88,7.0,South,6.9,-,0.00,,Mostly Cloudy,190,2012-10-08 08:55:00
11:25 PM,73.4,69.8,88,29.88,7.0,South,9.2,-,N/A,Rain,Light Rain,180,2012-10-08 09:25:00
11:35 PM,73.4,71.6,94,29.88,5.0,South,5.8,-,N/A,Rain,Light Rain,170,2012-10-08 09:35:00
11:44 PM,73.4,71.6,94,29.88,5.0,Variable,4.6,-,N/A,Rain,Light Rain,0,2012-10-08 09:44:00
11:49 PM,73.4,69.8,88,29.88,7.0,Variable,4.6,-,N/A,,Partly Cloudy,0,2012-10-08 09:49:00
11:55 PM,73.4,70.7,91,29.88,7.0,SSE,8.1,-,0.01,,Scattered Clouds,150,2012-10-08 09:55:00